This is the latest recevied weather packets stored in our database for station/object IZ1UQG-1. If no packets are shown the sender has not sent any weather packets the latest 10 day(s).
| Time | Temp. | Humidity | Pressure | Rain* | Wind** | Luminosity | Snow |
|---|---|---|---|---|---|---|---|
| 1778117032 | 11.67° C | 82% | 1012.6 hPa | 141.22 mm | - | - | - |
| 1778116732 | 11.67° C | 82% | 1012.6 hPa | 135.13 mm | - | - | - |
| 1778116432 | 11.67° C | 82% | 1012.5 hPa | 147.57 mm | - | - | - |
| 1778116132 | 11.67° C | 82% | 1012.4 hPa | 152.65 mm | - | - | - |
| 1778115832 | 11.67° C | 82% | 1012.3 hPa | 157.23 mm | - | - | - |
| 1778115532 | 11.67° C | 82% | 1012.4 hPa | 161.54 mm | - | - | - |
| 1778115232 | 11.67° C | 82% | 1012.3 hPa | 153.67 mm | - | - | - |
| 1778114932 | 12.22° C | 82% | 1012.4 hPa | 153.67 mm | - | - | - |
| 1778114632 | 12.22° C | 82% | 1012.2 hPa | 152.65 mm | - | - | - |
| 1778114332 | 12.22° C | 82% | 1012.3 hPa | 145.03 mm | - | - | - |
| 1778114032 | 12.22° C | 82% | 1012.4 hPa | 143.26 mm | - | - | - |
| 1778113732 | 12.22° C | 82% | 1012.2 hPa | 152.15 mm | - | - | - |
| 1778113432 | 12.78° C | 82% | 1012.3 hPa | 157.23 mm | - | - | - |
| 1778113132 | 12.78° C | 82% | 1012.2 hPa | 152.65 mm | - | - | - |
| 1778112832 | 12.78° C | 82% | 1012.5 hPa | 150.11 mm | - | - | - |
| 1778112532 | 12.78° C | 82% | 1012.5 hPa | 152.15 mm | - | - | - |
| 1778112232 | 12.78° C | 82% | 1012.3 hPa | 160.53 mm | - | - | - |
| 1778111932 | 12.78° C | 82% | 1012.3 hPa | 146.56 mm | - | - | - |
| 1778111632 | 12.78° C | 82% | 1012.4 hPa | 155.19 mm | - | - | - |
| 1778111332 | 12.78° C | 82% | 1012.4 hPa | 150.11 mm | - | - | - |
| 1778111032 | 12.78° C | 82% | 1012.3 hPa | 159 mm | - | - | - |
| 1778110732 | 12.78° C | 82% | 1012.2 hPa | 150.62 mm | - | - | - |
| 1778110432 | 12.78° C | 82% | 1012.3 hPa | 168.15 mm | - | - | - |
| 1778110132 | 12.78° C | 82% | 1012.3 hPa | 146.56 mm | - | - | - |
| 1778109832 | 12.78° C | 82% | 1012.2 hPa | 145.54 mm | - | - | - |
* Rain latest hour (hover to see other rain measurements)
** Current wind speed in m/s (hover to see current wind gust speed)